No identification:



1999 RQ28 

Epoch 1999 Aug. 10.0 TT = JDT 2451400.5                 Nakano

M 329.95957              (2000.0)            P               Q

n   0.37384190     Peri.  269.46909     +0.82786938     -0.55858515

a   1.9084351      Node   124.48790     +0.53615472     +0.76123140

e   0.4243642      Incl.    3.55692     +0.16483447     +0.32940764

P   2.64           H   20.7           G   0.15           U   6

Residuals in seconds of arc 

J9997  699  0.2+  0.7+    J999A  426  0.4-  0.7+    J999I  848  0.8+  1.0-  

J9997  699  0.1+  0.5+    J999A  426  0.2-  0.1+    J999I  428  0.7+  0.1+  

J9997  699  0.5-  0.4+    J999A  426  0.8-  0.4+    J999I  428  0.2+  0.9+  

J9997  106  0.2+  0.6+    J999B  848  0.4-  0.5-    J999J  848  0.5-  0.8+  

J9997  106  0.6+  0.3+    J999B  848  0.5-  0.3+    J999J  848  0.0   0.0   

J9997  557  0.3+  0.1+    J999B  848  0.4-  0.6-    J999J  848  0.1+  0.3-  

J9997  557  0.1+  0.2+    J999C  360  0.2+  0.1-    J999K  848  1.7+  1.1+  

J9997  106  0.3-  0.1+    J999C  360  0.4+  0.2+    J999K  848  0.6+  0.8+  

J9997  557  0.3+  0.0     J999C  360  0.7+  0.0     J999K  848  1.9+  0.1-  

J9998  595  0.4+  0.6-    J999D  704  0.6-  1.4-    J999S  402  0.2+  0.0   

J9998  595  1.6+  1.3-    J999D  704  0.6+  0.7-    J999S  402  0.1-  0.0   

J9998  595  0.9+  0.6-    J999D  704  0.1+  0.8-    J999S  402  0.4-  0.7-  

J9998  046  0.8-  0.7+    J999D  704  0.3-  0.3-    J999U  704  0.2+  0.2+  

J9998  046  0.1-  0.3+    J999D  046  0.1-  0.1-    J999U  704  0.1-  0.0   

J9998  046  0.2-  0.7+    J999D  046  0.1+  0.1+    J999U  704  1.0-  0.4-  

J9998  046  0.1-  0.4-    J999D  046  0.1-  0.1+    J999U  704  1.2-  0.0   

J9999  426  0.3+  0.7+    J999E  118  0.1-  0.1+    J999U  704  0.7-  0.6-  

J9999  426  0.2-  0.0     J999E  118  0.7-  0.2-    J99A4  428  0.4-  1.0+  

J9999  426  0.3-  0.2+    J999E  118  0.4-  0.1+    J99A4  428  0.2-  0.6+  

J9999  428  1.8-  0.4-    J999H  322  1.5-  1.0-    J99A4  428  0.1-  0.5+  

J9999  428  0.5+  0.4-    J999H  322 (2.7-  5.9-)   J99A9  360  0.4+  0.1-  

J9999  046  0.0   0.2-    J999H  322  0.8+  0.3+    J99A9  360  0.5+  0.4-  

J9999  046  0.4-  0.5+    J999I  848  0.5+  0.3-    J99A9  360  0.3+  0.4-  

J9999  046  0.8-  0.6-    J999I  848  0.5+  0.3+                            

 

NAKANO

         **** Don't distribute anyone except personal use only ****

                (C) Copyright 1999 OAA/ComputingSection

write mail from CFAD0::NAKANO on 1999-10-11 03:07:19(JST).



1999 RQ28 

Epoch 1999 Sep. 19.0 TT = JDT 2451440.5                 Nakano

M 344.91168              (2000.0)            P               Q

n   0.37388425     Peri.  269.47561     +0.82785062     -0.55861381

a   1.9082910      Node   124.48338     +0.53617593     +0.76121083

e   0.4243429      Incl.    3.55607     +0.16485970     +0.32940656

P   2.64           H   20.6           G   0.15           U   *



 NAKANO

         **** Don't distribute anyone except personal use only ****

                (C) Copyright 1999 OAA/ComputingSection

write mail from CFAD0::NAKANO on 1999-10-01 18:59:30(JST).





 1999 RQ28 

Epoch 1999 Aug. 30.0 TT = JDT 2451420.5                 Nakano

M 337.27284              (2000.0)            P               Q

n   0.37636373     Peri.  269.63657     +0.82735336     -0.55937420

a   1.8999006      Node   124.37527     +0.53673429     +0.76067028

e   0.4222461      Incl.    3.53304     +0.16553767     +0.32936489

P   2.62           H   20.3           G   0.15           U   *

 

 NAKANO

         **** Don't distribute anyone except personal use only ****

                (C) Copyright 1999 OAA/ComputingSection

write mail from CFAD0::NAKANO on 1999-09-15 05:44:48(JST).                         



–ß‚è‚Ü‚·B